Location: Bermeries
(50.2863°N, 3.7551°E)
Time: 03:50:17
(UTC+00:00)

SJ 16-02 - Pass Details

Date: 23 May 2024
Orbit: 594 x 606 km, 75.0° (Epoch: 17 June)

Event Time Altitude Azimuth Distance (km) Brightness Sun altitude
Exits shadow 01:40:33 13° 161° (SSE) 1,748 3.3 -14.4°
Maximum altitude 01:43:51 32° 102° (ESE) 1,039 2.7 -14.1°
Drops below altitude 10° 01:47:41 10° 40° (NE) 1,939 5.3 -13.8°
Sets 01:50:05 0° 30° (NNE) 2,847 6.8 -13.6°
